Find Starlink 1716

NORAD ID: 46672 Int'l Des: 2020-073 Owner: SPXS Country: US Constellation: starlink operational
LEOCIRCULAR

現在のビュー

3D地球を読み込み中...

About Starlink 1716

Starlink 1716 (NORAD 46672) is a starlink constellation satellite (v1.0) launched Oct 18, 2020 by SPXS of US. It operates in LEO, CIRCULAR orbit with a mass of 260.00 kg.

Starlink 1716について

説明を読み込み中...

次回通過

Passes for default location (London). Set your location on the main map for personalized predictions.

高度履歴

Loading altitude history...

軌道要素

1 46672U 20073C 26169.21022519 .00516449 13145-3 86256-3 0 9999
2 46672 53.0322 58.3271 0006739 243.5753 116.4586 16.02316070313578
Epoch: Jun 18, 2026 • Age: 7 hours

現在のステータス

高度 269.4 km
速度 7.75 km/s
衛星直下点 -20.34°S, 167.9°E
打ち上げ日 Oct 18, 2020
運用期間 5.6 years
タイプ internet

技術仕様

分類 Payload
質量 260.00 kg
乾燥質量 248.00 kg
総質量 260.00 kg
長さ 0.20 m
直径 2.80 m
スパン 9.00 m
形状 Box + pan
製造者 SPXS
バスタイプ Starlink
フェーズステータス In Orbit
所有者/国 SPXS/US

Most Searched